Hourly Weather Sankt Polten

Today, 7 July, Tuesday

Time Temperature Precipitation Wind Pressure Humidity
00:00 +13°C° 0.8 mm 3 mps 737 mmHg 92%
01:00 +12°C° 0 mm 3 mps 737 mmHg 91%
02:00 +11°C° 0.2 mm 3 mps 737 mmHg 92%
03:00 +12°C° 0.2 mm 2 mps 737 mmHg 93%
04:00 +10°C° 0.2 mm 2 mps 737 mmHg 94%
05:00 +11°C° 0 mm 3 mps 738 mmHg 91%
06:00 +12°C° 0 mm 3 mps 738 mmHg 88%
07:00 +13°C° 0 mm 3 mps 738 mmHg 85%
08:00 +15°C° 0 mm 4 mps 738 mmHg 75%
09:00 +17°C° 0 mm 4 mps 738 mmHg 66%
10:00 +19°C° 0 mm 5 mps 738 mmHg 56%
11:00 +19°C° 0 mm 4 mps 738 mmHg 55%
12:00 +19°C° 0 mm 4 mps 738 mmHg 54%
13:00 +20°C° 0 mm 4 mps 737 mmHg 53%
14:00 +20°C° 0 mm 3 mps 737 mmHg 53%
15:00 +20°C° 0 mm 3 mps 737 mmHg 53%
16:00 +21°C° 0 mm 2 mps 737 mmHg 54%
17:00 +20°C° 0 mm 2 mps 737 mmHg 60%
18:00 +20°C° 0 mm 1 mps 737 mmHg 67%
19:00 +19°C° 0 mm 1 mps 737 mmHg 74%
20:00 +16°C° 0 mm 1 mps 737 mmHg 75%
21:00 +15°C° 0 mm 1 mps 737 mmHg 77%
22:00 +13°C° 0 mm 1 mps 737 mmHg 79%
23:00 +13°C° 0 mm 1 mps 737 mmHg 80%

Tomorrow, 8 July, Wednesday

Time Temperature Precipitation Wind Pressure Humidity
00:00 +13°C° 0 mm 1 mps 737 mmHg 81%
01:00 +12°C° 0 mm 1 mps 737 mmHg 81%
02:00 +12°C° 0 mm 1 mps 737 mmHg 82%
03:00 +12°C° 0 mm 1 mps 737 mmHg 84%
04:00 +12°C° 0 mm 1 mps 737 mmHg 85%
05:00 +14°C° 0 mm 1 mps 737 mmHg 79%
06:00 +16°C° 0 mm 1 mps 737 mmHg 74%
07:00 +19°C° 0 mm 1 mps 737 mmHg 68%
08:00 +20°C° 0 mm 1 mps 737 mmHg 62%
09:00 +21°C° 0 mm 2 mps 737 mmHg 56%
10:00 +24°C° 0 mm 2 mps 737 mmHg 50%
11:00 +25°C° 0 mm 2 mps 736 mmHg 48%
12:00 +26°C° 0 mm 3 mps 736 mmHg 46%
13:00 +26°C° 0 mm 3 mps 736 mmHg 44%
14:00 +26°C° 0 mm 3 mps 736 mmHg 47%
15:00 +26°C° 0 mm 4 mps 736 mmHg 49%
16:00 +26°C° 0 mm 4 mps 736 mmHg 52%
17:00 +25°C° 0 mm 3 mps 736 mmHg 60%
18:00 +22°C° 0 mm 3 mps 736 mmHg 68%
19:00 +21°C° 0 mm 2 mps 736 mmHg 75%
20:00 +19°C° 0 mm 2 mps 737 mmHg 79%
21:00 +19°C° 0 mm 1 mps 737 mmHg 82%
22:00 +18°C° 0 mm 1 mps 737 mmHg 86%
23:00 +18°C° 0 mm 1 mps 738 mmHg 86%

Day after tomorrow, 9 July, Thursday

Time Temperature Precipitation Wind Pressure Humidity
00:00 +18°C° 0 mm 1 mps 738 mmHg 86%
01:00 +16°C° 0 mm 1 mps 738 mmHg 86%
02:00 +16°C° 0 mm 1 mps 738 mmHg 87%
03:00 +16°C° 0 mm 1 mps 738 mmHg 89%
04:00 +15°C° 0 mm 1 mps 738 mmHg 90%
05:00 +16°C° 0 mm 1 mps 738 mmHg 87%
06:00 +19°C° 0 mm 1 mps 738 mmHg 85%
07:00 +20°C° 0 mm 1 mps 738 mmHg 82%
08:00 +21°C° 0 mm 1 mps 738 mmHg 77%
09:00 +23°C° 0 mm 1 mps 738 mmHg 72%
10:00 +24°C° 0 mm 1 mps 739 mmHg 67%
11:00 +25°C° 0.2 mm 1 mps 738 mmHg 64%
12:00 +26°C° 0.2 mm 2 mps 738 mmHg 61%
13:00 +28°C° 0.2 mm 2 mps 738 mmHg 59%
14:00 +27°C° 0.5 mm 2 mps 738 mmHg 61%
15:00 +27°C° 0.5 mm 1 mps 737 mmHg 64%
16:00 +27°C° 0.5 mm 1 mps 737 mmHg 67%
17:00 +26°C° 0.5 mm 1 mps 737 mmHg 73%
18:00 +23°C° 0.5 mm 0 mps 737 mmHg 79%
19:00 +21°C° 0.5 mm 0 mps 737 mmHg 85%
20:00 +20°C° 0 mm 0 mps 737 mmHg 87%
21:00 +21°C° 0 mm 1 mps 737 mmHg 89%
22:00 +20°C° 0 mm 1 mps 737 mmHg 90%
23:00 +19°C° 0 mm 1 mps 737 mmHg 91%

10 July, Friday

Time Temperature Precipitation Wind Pressure Humidity
00:00 +19°C° 0 mm 1 mps 737 mmHg 91%
01:00 +19°C° 0 mm 1 mps 736 mmHg 91%
02:00 +18°C° 0 mm 1 mps 736 mmHg 91%
03:00 +18°C° 0 mm 1 mps 736 mmHg 91%
04:00 +18°C° 0 mm 1 mps 736 mmHg 91%
05:00 +19°C° 0 mm 1 mps 736 mmHg 88%
06:00 +21°C° 0 mm 1 mps 736 mmHg 84%
07:00 +20°C° 0 mm 0 mps 736 mmHg 81%
08:00 +25°C° 0 mm 1 mps 736 mmHg 72%
09:00 +27°C° 0 mm 1 mps 736 mmHg 62%
10:00 +30°C° 0 mm 1 mps 736 mmHg 53%
11:00 +31°C° 0 mm 1 mps 735 mmHg 49%
12:00 +31°C° 0 mm 1 mps 735 mmHg 45%
13:00 +32°C° 0 mm 2 mps 734 mmHg 42%
14:00 +32°C° 0 mm 1 mps 734 mmHg 42%
15:00 +32°C° 0 mm 1 mps 734 mmHg 42%
16:00 +32°C° 0 mm 1 mps 733 mmHg 42%
17:00 +30°C° 0 mm 1 mps 733 mmHg 52%
18:00 +28°C° 0 mm 1 mps 733 mmHg 61%
19:00 +26°C° 0 mm 1 mps 733 mmHg 70%
20:00 +25°C° 0.9 mm 1 mps 734 mmHg 77%
21:00 +23°C° 0.9 mm 2 mps 734 mmHg 85%
22:00 +20°C° 0.9 mm 3 mps 735 mmHg 92%
23:00 +20°C° 1.3 mm 2 mps 735 mmHg 94%

11 July, Saturday

Time Temperature Precipitation Wind Pressure Humidity
00:00 +20°C° 1.3 mm 2 mps 735 mmHg 96%
01:00 +20°C° 1.3 mm 1 mps 736 mmHg 98%
02:00 +20°C° 0.7 mm 1 mps 736 mmHg 98%
03:00 +20°C° 0.7 mm 1 mps 736 mmHg 98%
04:00 +20°C° 0.7 mm 1 mps 736 mmHg 98%
05:00 +19°C° 0.6 mm 1 mps 737 mmHg 98%
06:00 +19°C° 0.6 mm 1 mps 737 mmHg 97%
07:00 +18°C° 0.6 mm 2 mps 738 mmHg 96%
08:00 +19°C° 0.9 mm 1 mps 738 mmHg 96%
09:00 +18°C° 0.9 mm 1 mps 738 mmHg 96%
10:00 +18°C° 0.9 mm 1 mps 739 mmHg 95%
11:00 +18°C° 1.6 mm 1 mps 739 mmHg 96%
12:00 +18°C° 1.6 mm 1 mps 739 mmHg 96%
13:00 +16°C° 1.6 mm 1 mps 739 mmHg 97%
14:00 +16°C° 1.3 mm 1 mps 739 mmHg 97%
15:00 +16°C° 1.3 mm 1 mps 739 mmHg 97%
16:00 +16°C° 1.3 mm 1 mps 739 mmHg 97%
17:00 +16°C° 1.6 mm 1 mps 739 mmHg 97%
18:00 +16°C° 1.6 mm 1 mps 740 mmHg 97%
19:00 +15°C° 1.6 mm 0 mps 740 mmHg 97%
20:00 +15°C° 0.5 mm 0 mps 740 mmHg 97%
21:00 +14°C° 0.5 mm 0 mps 740 mmHg 97%
22:00 +14°C° 0.5 mm 0 mps 741 mmHg 97%
23:00 +14°C° 0.1 mm 0 mps 741 mmHg 96%

12 July, Sunday

Time Temperature Precipitation Wind Pressure Humidity
00:00 +14°C° 0.1 mm 0 mps 741 mmHg 96%
01:00 +14°C° 0.1 mm 1 mps 741 mmHg 95%
02:00 +14°C° 0 mm 1 mps 741 mmHg 95%
03:00 +13°C° 0 mm 1 mps 741 mmHg 94%
04:00 +13°C° 0 mm 1 mps 741 mmHg 94%
05:00 +14°C° 0 mm 1 mps 741 mmHg 91%
06:00 +15°C° 0 mm 1 mps 741 mmHg 89%
07:00 +16°C° 0 mm 1 mps 741 mmHg 87%
08:00 +18°C° 0 mm 1 mps 741 mmHg 77%
09:00 +20°C° 0 mm 1 mps 741 mmHg 67%
10:00 +20°C° 0 mm 2 mps 742 mmHg 57%
11:00 +21°C° 0 mm 2 mps 741 mmHg 55%
12:00 +21°C° 0 mm 2 mps 741 mmHg 52%
13:00 +23°C° 0 mm 2 mps 741 mmHg 50%
14:00 +23°C° 0 mm 2 mps 741 mmHg 50%
15:00 +23°C° 0 mm 2 mps 741 mmHg 51%
16:00 +23°C° 0 mm 2 mps 741 mmHg 52%
17:00 +20°C° 0 mm 2 mps 741 mmHg 60%
18:00 +20°C° 0 mm 1 mps 741 mmHg 67%
19:00 +19°C° 0 mm 1 mps 741 mmHg 75%
20:00 +16°C° 0 mm 1 mps 741 mmHg 77%
21:00 +15°C° 0 mm 1 mps 742 mmHg 80%
22:00 +13°C° 0 mm 1 mps 742 mmHg 82%
23:00 +13°C° 0 mm 1 mps 742 mmHg 83%
Show more